Погода в Чапаевке

Россия / Московская область     55°35′36″N   36°38′55″E
темп.,
°C
ветер,
м/с
пор.,
м/с
влажн.,
%
обл.,
%
осадки,
мм/ч
давл.,
гПа
погр.,
м
16 мая, вс
вс1600:00+12ю310975 0.0 1009280
03:00+11ююз399813 0.0 1010242
06:00+11ююз310955 0.0 1011322
09:00+17ююз48715 0.0 1012751
12:00+20ююз475811 0.2 10121589
15:00+19юз47641 2.1 10131360
18:00+19ююз36671 0.4 10121095
21:00+14ю11892 0.4 101311
17 мая, пн
пн1700:00+12вюв1192100 0.0 101410
03:00+12вюв22948 0.0 101522
06:00+13в249077 0.0 1015112
09:00+19вюв476673 0.0 1014563
12:00+23в575746 0.0 1013947
15:00+25вюв68556 0.0 10111340
18:00+24вюв59695 0.0 10101089
21:00+19вюв4138499 0.0 1010489
18 мая, вт
вт1800:00+17вюв41586100 0.0 1009432
03:00+15вюв413876 0.0 1009333
06:00+16вюв41280100 0.0 1008361
09:00+20юв5116299 0.0 1008556
12:00+25ююв6104892 0.0 10081127
15:00+25юв51147100 0.0 10081534
18:00+24юв5105887 0.0 10071179
21:00+18в3128898 0.0 1007349
19 мая, ср
ср1900:00+18вюв4128195 0.0 1007402
03:00+16вюв41286100 0.1 1006376
06:00+15вюв3108566 0.1 1006255
09:00+21юв5126463 0.1 1007909
12:00+24ююв5105375 0.0 10061729
15:00+22юв51770100 1.3 10072395
18:00+20ююв41579100 1.3 10071796
21:00+15юв249099 1.9 100563
20 мая, чт
чт2000:00+15вюв41290100 0.9 1006485
03:00+14юв499699 1.0 1005599
06:00+13ююв389655 0.0 1006531
09:00+15ююв4783100 0.4 1005778
12:00+16ю588396 1.9 10061052
15:00+18ююз696328 2.9 10071447
18:00+16юз58775 0.6 10081002
21:00+12ююз4108883 0.6 1010501